Wind_Speed
35 35 36 35 35 38 40 41 44 48 48 42 42 44 45 41 39 42 45 48 55 51 53 55 50 56 63 61 68 67 70 71 69 69 50 36 45 52 53 53 69 71 69
40 40 40 38 39 41 42 44 48 51 49 44 42 42 47 38 40 49 53 51 51 55 54 54 57 64 61 68 70 74 70 70 62 56 55 52 44 47 53 60 73 77 64
46 45 44 42 43 43 46 48 51 50 51 45 46 42 45 41 41 47 56 56 55 53 54 59 63 66 71 71 71 74 73 69 64 63 60 62 64 66 67 73 73 70 78
51 48 47 48 46 48 49 50 52 52 49 43 45 44 47 39 41 47 52 58 63 57 56 63 65 67 69 72 74 72 76 77 68 71 66 67 67 68 74 76 72 85 90
54 52 51 52 51 53 54 54 53 52 51 49 49 48 49 48 46 54 59 61 65 68 69 70 73 74 76 76 76 75 68 67 70 71 70 72 78 85 77 78 84 95 77
55 54 55 57 57 57 55 56 56 54 51 49 51 52 52 55 56 58 63 69 72 75 76 77 79 79 77 74 73 70 67 72 74 76 79 82 89 78 90 98 104 86 81
58 59 61 61 61 62 59 58 57 56 53 53 52 53 58 61 62 65 67 67 70 72 75 74 74 73 74 74 71 70 79 82 80 80 88 96 94 98 100 102 82 81 80
64 65 66 66 65 65 62 60 60 59 56 54 55 55 57 61 62 69 69 65 66 70 76 75 72 73 71 76 77 80 83 87 87 92 94 94 97 99 108 89 88 86 82
69 69 70 70 71 70 67 65 63 62 59 57 60 63 64 62 67 67 68 67 67 67 66 63 63 69 72 79 81 79 83 85 84 87 95 103 105 107 95 87 79 79 74
73 74 74 73 73 72 71 69 67 63 63 63 65 68 68 70 70 68 70 69 68 72 71 72 76 80 79 86 89 87 87 88 87 98 105 103 104 98 95 90 82 66 53
77 77 76 74 74 73 71 69 68 69 69 68 71 73 73 71 72 70 71 74 77 79 77 80 83 88 93 95 97 97 97 98 97 97 100 103 100 89 84 75 63 55 52
81 79 78 74 74 72 70 69 70 72 72 75 76 77 76 75 72 70 75 78 82 81 81 83 85 89 88 85 90 95 94 98 104 108 106 91 89 86 78 63 54 49 45
82 82 79 74 72 72 69 71 72 74 74 77 80 78 78 72 69 76 81 84 86 86 83 81 78 80 84 80 80 82 81 83 81 80 82 84 83 74 61 54 47 44 39
83 81 77 73 71 70 71 73 75 74 75 80 81 80 78 74 77 84 87 90 90 89 85 82 82 79 73 72 71 72 75 78 81 81 80 78 69 58 51 47 43 37 34
81 79 77 74 73 75 74 76 77 79 80 80 80 80 81 82 85 89 93 92 89 86 85 78 72 72 72 73 75 76 81 82 82 80 74 62 57 50 43 39 36 31 32
80 80 78 76 76 77 79 79 80 79 79 81 80 82 83 87 90 91 89 85 81 78 76 76 77 77 78 80 81 81 82 81 78 68 58 53 47 43 38 35 33 31 30
80 80 77 77 79 79 80 80 81 81 80 83 84 85 86 90 91 86 82 80 78 78 80 82 82 84 87 85 83 84 81 69 59 58 54 48 43 39 34 32 30 26 29
80 80 80 75 74 77 76 76 76 79 81 82 84 88 90 87 84 83 82 78 80 82 84 85 88 90 86 81 76 67 61 57 51 50 48 44 40 37 32 29 28 26 29
77 72 70 70 72 74 74 79 81 81 79 84 85 87 85 84 83 82 81 82 83 86 89 88 82 76 70 64 60 55 51 47 45 44 43 39 36 33 31 28 28 29 31
67 61 66 69 72 74 77 80 82 80 79 80 84 82 83 80 81 82 84 85 86 90 80 67 63 60 58 54 51 47 46 43 40 40 38 35 32 30 28 26 26 27 32
64 68 70 70 74 77 79 79 80 80 82 81 79 80 85 83 83 85 86 86 89 74 65 58 56 55 53 49 46 44 41 39 38 37 36 33 29 28 24 23 24 26 32
68 69 72 74 73 78 76 79 81 82 81 82 78 80 81 84 87 86 86 90 78 66 60 58 54 52 49 45 40 38 38 37 35 34 31 31 29 27 25 23 23 26 31
74 72 73 77 78 80 80 80 81 83 84 82 79 82 87 87 87 86 89 78 67 60 58 55 48 44 42 40 39 36 35 34 32 30 29 28 27 25 24 22 23 25 30
83 84 87 88 82 83 82 81 84 84 84 82 82 86 88 91 85 88 78 65 58 52 47 44 42 41 40 37 35 32 32 31 30 29 27 25 24 23 20 20 22 25 29
82 88 87 87 93 89 84 84 84 84 86 87 89 91 92 89 88 78 64 56 50 47 45 41 40 39 38 36 34 33 31 29 28 28 26 24 22 21 18 18 21 24 30
94 91 91 91 91 86 86 86 87 86 85 89 89 92 89 86 77 62 55 50 48 44 41 41 39 37 36 34 33 33 33 31 28 25 25 23 21 21 19 18 18 22 28
Wind_Direction
295 296 300 308 308 306 312 315 316 318 319 314 315 319 322 318 314 312 314 311 313 316 310 308 309 302 308 308 315 318 321 324 323 323 324 308 303 304 306 304 310 315 312
293 293 298 305 304 304 309 313 314 316 317 309 312 314 323 321 309 306 310 313 312 311 308 305 303 304 298 306 312 317 316 319 322 321 324 324 318 312 307 303 308 313 311
289 290 296 301 300 304 307 308 309 314 315 309 310 311 317 309 297 299 304 306 306 307 306 300 299 302 305 308 309 311 314 313 317 318 319 321 319 313 312 312 315 310 306
286 290 295 296 299 300 302 305 310 311 309 302 304 307 313 305 293 295 295 297 300 301 296 297 300 303 303 304 307 310 309 311 316 319 319 318 316 312 315 317 308 304 305
284 289 292 293 295 296 300 307 308 307 306 301 299 303 309 309 293 294 295 293 293 293 294 294 296 299 300 302 307 307 307 310 315 312 311 311 311 312 313 308 308 310 302
284 287 289 290 291 294 300 303 304 304 303 300 299 301 306 307 302 303 298 294 295 292 290 293 297 300 304 305 305 301 303 308 307 304 305 308 314 310 309 312 310 307 301
281 284 285 287 291 295 299 304 303 302 303 300 298 299 305 306 305 304 304 302 299 289 288 293 297 298 297 297 298 299 302 305 303 303 301 307 308 310 309 309 307 303 299
279 281 284 288 291 295 300 302 302 303 303 300 300 302 302 304 301 304 306 303 299 292 286 290 293 294 296 294 295 296 297 298 300 303 307 306 306 308 308 304 305 302 299
279 281 284 288 293 298 301 303 303 304 304 302 303 305 306 304 305 305 304 300 299 294 292 284 279 280 278 286 289 293 298 300 304 303 302 305 306 306 305 305 302 297 295
278 281 285 290 295 299 301 302 303 303 301 303 305 305 305 307 308 305 302 301 296 293 286 282 279 280 281 284 285 292 296 298 297 294 300 301 305 304 304 301 301 298 292
277 281 286 291 294 296 298 301 301 301 301 302 303 304 306 307 307 302 300 297 299 297 290 288 286 285 283 283 285 288 293 294 295 296 298 297 302 301 301 300 298 294 290
277 282 285 289 291 294 295 296 297 299 301 303 303 305 305 306 303 297 297 298 296 295 293 290 288 287 290 292 291 287 289 291 292 293 296 298 298 299 300 297 295 291 283
278 282 284 286 289 292 294 295 295 296 299 300 301 301 302 303 299 296 298 299 298 296 295 295 294 293 295 295 295 296 295 295 296 298 297 298 298 299 297 294 290 290 282
277 280 283 286 288 290 290 291 294 295 296 296 298 300 300 300 298 299 298 299 299 299 299 303 302 300 302 302 301 301 303 303 301 301 300 300 300 299 294 291 288 283 278
276 278 281 285 286 287 289 289 291 292 293 295 297 297 298 298 298 299 300 301 301 302 302 303 304 304 303 303 304 305 305 304 303 303 302 301 299 296 291 286 284 278 271
277 280 282 285 287 287 289 290 291 293 294 295 295 295 298 299 301 302 303 305 305 305 305 306 306 306 305 305 305 306 304 303 302 302 301 300 298 295 286 282 278 273 261
278 280 283 284 287 288 289 290 291 294 294 295 296 298 300 300 303 304 303 303 305 306 306 306 307 307 306 305 305 304 302 302 301 302 302 300 296 292 283 279 272 261 249
276 280 284 288 288 288 288 291 291 292 295 295 295 297 301 302 302 302 302 304 307 308 308 307 307 305 304 304 302 300 299 302 302 302 303 299 294 289 281 272 262 251 240
281 283 284 285 285 286 288 288 290 294 294 292 298 302 301 301 301 302 305 308 310 310 309 307 304 302 301 299 300 301 301 302 303 304 305 299 293 287 278 269 257 245 233
278 277 278 282 286 287 289 290 291 292 294 297 301 301 299 303 304 307 310 311 311 311 307 306 303 300 301 301 301 302 301 301 303 306 304 300 293 284 277 266 256 242 230
272 273 278 285 287 288 290 289 290 293 297 298 301 302 304 307 309 310 311 313 313 309 309 307 304 304 306 305 305 302 298 298 301 302 302 302 299 293 282 269 254 240 226
273 277 286 289 290 290 288 289 292 296 298 300 302 302 305 307 309 311 314 313 311 310 308 307 307 307 306 307 305 302 300 297 298 298 298 298 297 293 287 273 253 237 225
281 280 284 289 292 289 289 292 293 296 298 302 304 305 306 309 312 313 313 311 309 308 307 306 305 305 307 306 305 304 303 299 295 296 294 294 291 286 282 270 251 237 224
277 281 281 282 292 290 291 290 292 296 298 300 303 305 308 310 312 311 309 307 304 304 304 304 306 308 307 306 308 308 304 303 295 293 292 290 286 278 277 266 252 241 223
276 279 283 283 286 291 288 289 292 295 296 298 300 304 307 309 310 308 304 302 301 302 302 304 306 306 307 309 312 313 313 305 297 288 288 285 281 271 268 267 256 242 226
277 279 285 287 288 287 287 289 291 293 296 298 301 304 307 307 306 302 300 300 300 299 300 302 303 305 306 308 309 313 315 312 303 290 281 281 277 269 261 257 257 241 225
Height
10944 10943 10942 10941 10939 10935 10932 10927 10922 10917 10912 10908 10903 10896 10890 10884 10879 10874 10872 10867 10861 10855 10851 10848 10843 10839 10833 10827 10824 10818 10812 10806 10801 10800 10796 10795 10792 10788 10784 10780 10776 10771 10764
10936 10935 10934 10934 10932 10928 10924 10920 10915 10910 10905 10899 10896 10891 10882 10875 10869 10863 10858 10853 10850 10847 10839 10835 10832 10827 10822 10818 10812 10805 10802 10796 10789 10781 10782 10779 10774 10770 10769 10765 10757 10750 10744
10927 10926 10926 10926 10923 10920 10916 10912 10907 10903 10895 10890 10887 10882 10875 10869 10862 10855 10849 10844 10839 10835 10830 10823 10819 10816 10812 10805 10800 10795 10789 10783 10779 10777 10767 10762 10757 10754 10751 10747 10735 10725 10720
10917 10918 10917 10914 10914 10911 10908 10904 10898 10892 10889 10885 10876 10872 10867 10859 10853 10847 10840 10835 10830 10825 10819 10813 10807 10803 10798 10794 10787 10780 10773 10768 10763 10758 10753 10749 10745 10741 10732 10722 10717 10708 10698
10907 10908 10907 10903 10902 10899 10897 10893 10890 10885 10880 10874 10869 10863 10858 10851 10843 10836 10831 10825 10820 10816 10808 10802 10795 10789 10785 10781 10775 10767 10760 10751 10744 10742 10739 10734 10728 10719 10711 10705 10698 10687 10675
10898 10897 10895 10891 10890 10888 10888 10885 10880 10874 10870 10865 10857 10852 10847 10841 10834 10828 10821 10815 10810 10803 10797 10788 10783 10776 10767 10760 10753 10747 10742 10739 10734 10729 10721 10714 10705 10698 10692 10682 10673 10660 10653
10885 10883 10880 10880 10878 10876 10877 10874 10867 10863 10859 10853 10848 10843 10834 10827 10819 10815 10811 10803 10795 10789 10782 10778 10772 10763 10755 10748 10739 10729 10725 10722 10715 10710 10702 10695 10689 10679 10672 10662 10644 10638 10627
10870 10868 10867 10866 10866 10864 10864 10862 10854 10849 10845 10839 10836 10831 10826 10819 10809 10802 10794 10789 10782 10776 10774 10768 10760 10751 10743 10731 10727 10719 10711 10703 10698 10688 10682 10675 10668 10656 10648 10639 10626 10615 10601
10854 10854 10853 10853 10850 10848 10846 10844 10840 10833 10828 10824 10818 10813 10809 10803 10795 10789 10783 10775 10767 10763 10757 10750 10741 10732 10722 10714 10706 10701 10693 10685 10677 10670 10660 10651 10642 10633 10624 10618 10604 10594 10582
10842 10842 10840 10840 10837 10832 10828 10825 10822 10819 10814 10808 10803 10798 10792 10786 10778 10771 10764 10757 10751 10745 10742 10734 10725 10714 10705 10696 10688 10684 10676 10669 10661 10648 10641 10634 10623 10609 10597 10589 10577 10572 10565
10830 10829 10828 10828 10823 10819 10815 10811 10804 10799 10796 10793 10788 10780 10775 10770 10760 10754 10748 10739 10732 10727 10720 10714 10707 10697 10690 10680 10673 10665 10657 10648 10638 10629 10619 10609 10599 10588 10580 10572 10562 10553 10547
10816 10815 10814 10815 10810 10806 10803 10798 10792 10786 10780 10774 10770 10765 10759 10755 10748 10737 10731 10726 10718 10709 10702 10694 10686 10675 10669 10663 10655 10645 10635 10625 10616 10607 10597 10584 10576 10566 10556 10549 10542 10535 10532
10802 10800 10798 10800 10798 10792 10788 10782 10778 10773 10768 10761 10754 10749 10745 10737 10731 10721 10715 10706 10697 10687 10681 10674 10666 10656 10645 10637 10630 10620 10610 10601 10593 10583 10572 10562 10553 10544 10535 10530 10524 10520 10517
10786 10784 10782 10783 10783 10778 10772 10768 10763 10757 10752 10747 10740 10733 10726 10720 10712 10702 10694 10686 10677 10667 10658 10653 10641 10634 10625 10616 10610 10599 10589 10578 10568 10560 10550 10540 10530 10523 10518 10514 10508 10507 10504
10766 10767 10768 10768 10766 10761 10756 10752 10747 10740 10735 10728 10721 10716 10708 10700 10693 10683 10674 10665 10655 10646 10636 10631 10620 10611 10605 10596 10588 10579 10566 10556 10545 10535 10527 10519 10512 10505 10502 10499 10496 10494 10493
10749 10749 10751 10751 10748 10743 10738 10733 10727 10722 10716 10710 10704 10696 10691 10681 10672 10663 10652 10643 10634 10624 10613 10606 10598 10591 10581 10571 10561 10555 10545 10535 10523 10515 10508 10502 10496 10490 10488 10486 10484 10483 10483
10730 10731 10731 10733 10728 10721 10718 10712 10706 10701 10695 10688 10682 10675 10669 10660 10651 10642 10634 10625 10615 10605 10595 10585 10575 10565 10554 10546 10538 10528 10519 10513 10504 10497 10490 10485 10481 10477 10475 10473 10472 10472 10473
10713 10714 10713 10709 10709 10702 10696 10692 10688 10681 10677 10669 10664 10656 10648 10639 10631 10623 10613 10604 10595 10584 10572 10562 10552 10542 10531 10523 10516 10508 10501 10495 10487 10481 10476 10471 10467 10464 10462 10462 10462 10463 10465
10699 10696 10693 10691 10688 10684 10679 10673 10667 10665 10663 10648 10646 10636 10626 10620 10611 10601 10592 10582 10572 10561 10550 10537 10526 10518 10511 10504 10497 10491 10484 10479 10474 10469 10463 10458 10455 10452 10451 10451 10451 10454 10457
10682 10679 10677 10674 10670 10665 10659 10653 10647 10641 10640 10636 10626 10618 10603 10602 10591 10581 10570 10560 10549 10538 10526 10516 10507 10500 10493 10487 10481 10475 10471 10467 10463 10458 10454 10449 10445 10442 10441 10441 10442 10444 10449
10665 10663 10659 10657 10653 10646 10640 10634 10630 10623 10616 10615 10613 10598 10577 10577 10569 10561 10550 10538 10528 10516 10506 10499 10491 10484 10478 10471 10467 10462 10458 10456 10452 10448 10444 10441 10437 10433 10432 10432 10433 10436 10441
10647 10648 10641 10637 10634 10626 10620 10616 10611 10604 10598 10591 10591 10577 10571 10560 10551 10541 10530 10519 10506 10497 10490 10482 10477 10471 10465 10460 10456 10452 10448 10445 10442 10439 10436 10433 10429 10425 10424 10424 10426 10429 10434
10629 10627 10623 10618 10616 10608 10602 10597 10590 10585 10579 10572 10568 10557 10548 10541 10530 10521 10511 10500 10491 10483 10476 10471 10466 10461 10456 10452 10447 10442 10438 10435 10433 10430 10428 10426 10422 10420 10418 10418 10419 10422 10427
10609 10606 10603 10600 10596 10588 10585 10577 10570 10565 10557 10554 10547 10538 10529 10520 10512 10503 10492 10484 10477 10471 10466 10462 10457 10452 10447 10442 10437 10433 10429 10426 10423 10421 10420 10418 10416 10414 10413 10412 10414 10416 10419
10590 10586 10581 10580 10575 10567 10564 10556 10552 10546 10537 10534 10527 10521 10514 10503 10494 10484 10476 10469 10464 10461 10456 10452 10448 10443 10439 10433 10428 10423 10420 10418 10415 10414 10412 10411 10409 10408 10407 10406 10407 10409 10413
10568 10565 10561 10557 10553 10547 10541 10536 10531 10528 10521 10514 10509 10501 10493 10485 10476 10468 10461 10457 10454 10450 10446 10443 10440 10435 10430 10424 10420 10416 10412 10410 10408 10406 10404 10403 10402 10401 10401 10401 10400 10402 10406